Theta_e
311 311 308 305 304 303 302 302 302 302 302 301 302 303 304 305 306 310 311 314 315 325 339 352 352 353 352 353 350 349 352 351 351 355 354 354 356 352 350 351 348 348 347 347 347
311 310 309 307 307 305 303 303 302 302 302 302 302 303 303 305 312 316 316 314 315 328 350 354 349 354 354 355 349 345 348 347 344 344 353 354 355 353 353 351 353 350 346 347 348
310 309 307 308 309 308 307 305 304 304 303 303 303 303 304 310 315 311 319 322 315 326 334 342 345 346 341 344 352 348 353 345 344 341 351 353 353 350 353 353 352 351 349 347 348
309 307 307 306 308 308 308 306 305 304 304 304 304 303 307 314 312 317 320 323 321 321 330 338 332 339 337 339 347 349 346 345 341 346 348 352 350 352 351 349 348 348 347 347 348
305 305 304 304 303 303 303 302 303 304 305 305 307 305 314 318 312 317 316 321 320 321 326 324 322 322 322 323 336 345 342 340 341 339 348 350 352 352 352 349 347 348 347 347 348
304 303 303 303 302 301 301 302 303 305 306 306 310 311 314 306 313 315 314 322 321 324 324 323 322 319 321 323 332 338 339 337 338 338 348 352 352 350 351 348 351 350 350 348 348
304 303 303 304 303 302 302 302 305 308 307 310 313 314 319 308 314 318 318 316 324 322 323 324 323 321 320 323 326 329 335 336 341 341 342 343 347 353 348 348 352 352 350 349 348
304 304 304 304 304 303 303 303 307 308 312 314 314 318 314 310 313 312 315 319 320 324 322 323 324 320 322 322 322 324 324 325 326 336 339 339 343 347 348 350 353 353 351 350 349
304 304 304 304 304 304 303 306 310 315 312 314 317 319 315 317 324 317 315 315 316 318 322 324 321 321 322 322 320 318 324 324 324 330 337 338 341 350 349 350 353 353 352 350 349
305 304 304 304 304 304 307 312 315 321 322 321 322 320 318 318 326 324 321 316 318 319 322 323 320 319 317 319 323 322 322 322 324 328 335 338 340 351 350 349 350 351 352 351 351
305 305 305 304 305 305 304 311 308 310 314 320 322 320 318 320 324 323 318 316 318 317 319 319 320 321 322 319 321 321 322 322 323 331 339 339 340 353 350 349 348 347 348 350 350
305 305 304 304 304 307 305 306 308 308 308 310 310 312 315 318 319 319 319 317 317 318 318 319 321 320 320 321 320 320 321 321 321 324 329 333 340 352 351 350 349 348 347 347 346
305 304 304 304 304 306 305 307 306 307 305 308 310 311 312 314 317 318 317 318 319 317 317 321 320 319 321 321 321 320 320 322 322 324 332 339 342 348 352 350 349 348 347 346 346
303 303 303 303 304 303 305 306 307 307 307 312 310 310 311 315 317 318 322 319 318 320 317 317 318 320 320 321 321 321 321 322 323 324 325 338 346 341 348 351 349 349 348 347 346
302 302 303 302 304 304 304 306 309 305 320 321 314 312 310 314 315 317 321 319 319 319 317 318 318 319 320 321 321 322 322 322 323 323 324 330 340 339 341 348 346 345 346 346 345
302 302 302 303 304 304 305 304 307 310 317 318 316 314 313 313 314 317 319 320 319 319 318 320 320 318 319 321 321 322 323 319 321 319 324 324 333 334 343 342 341 339 344 344 344
301 301 302 303 304 303 304 305 307 311 315 319 315 315 316 313 315 319 319 320 322 321 320 319 319 320 321 320 320 320 317 320 319 320 323 320 328 328 333 340 340 339 338 342 343
301 302 303 303 305 304 306 305 309 313 313 314 315 316 318 316 315 316 322 322 322 321 322 323 325 321 320 321 321 318 319 317 320 320 321 322 327 327 332 334 339 340 339 338 342
301 302 304 304 306 304 303 309 309 310 314 315 315 316 315 315 316 316 314 324 324 319 322 323 323 322 323 320 321 319 320 318 316 320 319 322 324 329 330 332 334 339 339 339 339
302 303 304 304 303 306 305 309 310 312 312 313 315 314 314 314 315 315 316 316 317 322 318 319 322 320 323 321 319 320 314 318 310 319 320 318 324 327 331 332 333 337 339 340 339
303 300 303 303 304 303 308 308 310 310 311 312 312 313 313 314 314 314 315 317 320 319 317 315 317 320 321 321 324 319 318 315 315 313 318 317 320 321 327 331 334 337 340 340 340
300 300 303 303 300 300 307 308 310 311 310 310 311 311 313 315 315 315 314 317 318 319 320 318 312 319 322 320 322 321 319 314 316 316 315 319 319 322 324 324 328 333 338 341 341
299 298 304 305 307 305 305 310 311 311 310 310 312 312 313 314 314 316 317 318 315 316 322 320 318 316 316 317 317 321 320 319 319 314 320 319 318 318 321 323 326 331 333 337 340
299 302 299 299 303 306 305 307 310 309 310 309 310 313 313 315 313 315 315 317 313 315 321 315 315 318 319 318 318 318 320 321 319 319 321 321 320 321 321 321 325 332 334 335 337
302 302 301 302 302 304 304 305 308 312 309 308 309 311 314 314 316 316 313 312 312 316 313 313 317 316 318 319 320 321 320 321 319 321 321 322 319 318 318 321 324 328 334 336 335
304 304 304 303 304 302 303 305 307 307 308 310 311 308 309 312 313 311 311 311 312 313 311 311 317 316 320 320 321 322 321 321 322 322 319 319 317 316 318 316 319 321 328 334 334
303 303 304 305 304 304 302 304 304 305 308 309 307 307 308 309 309 308 306 308 309 312 311 312 316 317 320 319 320 322 322 322 322 323 322 321 318 317 317 317 317 319 324 331 332
Wind_Speed
24 25 25 26 25 25 25 25 25 24 23 24 24 21 20 22 23 14 8 22 19 16 24 23 17 17 19 3 3 2 1 4 6 10 5 12 7 10 3 13 3 5 8 21 31
25 26 26 27 26 26 26 27 27 27 26 26 26 21 19 19 18 14 34 28 21 31 31 23 12 20 5 7 4 4 4 6 5 8 15 16 15 15 6 13 1 9 16 31 32
26 27 28 28 27 27 27 27 28 28 26 26 26 21 16 11 5 8 6 3 24 36 28 28 22 14 5 4 7 5 6 4 5 7 19 22 13 7 15 10 7 20 23 24 27
28 29 31 31 30 29 29 30 30 30 28 27 23 18 10 0 6 1 7 6 22 32 25 19 10 8 7 9 8 4 14 13 5 5 18 19 14 5 18 10 17 24 29 25 21
33 35 36 37 36 35 35 35 33 32 30 27 21 11 2 3 11 20 9 10 27 32 23 9 8 7 7 6 6 9 20 7 4 4 17 16 19 13 21 8 17 20 23 24 21
37 38 38 39 41 40 39 37 39 36 31 26 16 3 2 9 12 11 8 13 23 29 16 11 9 9 5 5 9 6 16 17 9 10 18 14 13 10 16 19 20 23 24 22 22
39 40 39 41 43 43 42 43 41 36 32 19 11 7 3 18 5 4 3 19 19 27 8 20 16 9 7 4 5 7 8 6 8 6 11 14 10 19 15 22 22 23 22 22 22
39 40 41 44 47 47 47 43 38 30 13 7 13 9 8 11 10 28 24 12 16 19 19 18 25 6 3 3 6 3 1 2 7 8 7 17 20 16 22 24 22 22 21 21 22
40 41 43 46 49 53 47 39 22 5 5 15 12 6 10 4 5 19 21 14 22 25 21 11 7 6 3 4 3 4 4 6 8 9 6 10 5 12 22 22 22 21 21 20 19
39 41 44 48 49 51 36 16 5 9 8 4 3 1 6 4 4 5 16 24 5 6 3 6 5 5 3 4 8 5 4 5 6 3 8 7 6 19 21 22 23 22 21 20 20
40 42 46 50 52 31 36 4 4 2 2 7 5 5 7 8 9 5 10 12 4 5 7 6 5 11 12 6 6 4 3 5 3 1 2 4 7 21 22 18 21 20 20 21 22
40 43 46 50 47 11 29 4 7 4 13 15 23 21 34 2 5 5 16 8 7 9 6 3 15 9 9 9 9 6 7 13 3 7 4 7 10 19 23 27 27 25 22 22 21
39 41 45 48 33 12 19 4 19 22 5 8 9 9 7 19 13 15 10 7 6 9 9 12 6 10 9 7 8 6 10 11 9 2 3 5 2 12 20 13 14 18 22 21 22
38 39 42 50 8 30 12 24 32 12 4 8 5 7 6 8 8 17 15 11 4 18 7 7 9 9 7 8 9 9 7 7 5 4 3 6 4 7 17 18 16 16 18 20 21
38 39 39 39 18 11 14 33 33 3 6 3 3 7 6 11 2 11 18 5 12 9 9 10 14 17 13 19 9 10 6 6 3 4 1 5 0 6 17 19 21 19 21 22 22
38 39 40 24 19 23 20 36 7 3 9 5 3 3 4 4 5 5 9 3 6 5 6 17 5 14 11 9 14 4 3 4 1 3 6 16 8 7 12 25 24 21 23 25 23
39 40 40 23 8 20 24 8 3 5 5 4 4 6 2 3 4 4 16 13 12 10 16 8 20 4 7 9 6 5 7 3 3 4 10 9 6 14 9 21 26 25 26 27 25
39 39 35 26 20 20 6 3 6 3 3 5 6 9 2 11 4 7 11 19 14 4 8 8 5 18 7 11 11 8 13 6 7 3 6 4 9 8 15 11 19 25 26 25 24
36 35 19 17 19 3 3 4 6 3 4 9 7 4 6 6 9 10 8 13 14 11 9 11 10 5 13 7 16 6 11 12 3 2 3 5 8 5 9 11 10 14 15 22 24
29 15 13 13 20 4 4 4 4 3 7 4 4 5 5 9 8 9 6 4 10 5 3 6 2 8 9 8 9 14 8 4 2 11 12 4 7 7 11 17 11 13 13 20 23
11 4 6 23 14 3 2 6 6 10 8 7 4 4 2 5 5 3 4 5 13 10 8 1 3 4 7 8 21 5 8 3 6 6 7 3 11 8 10 13 12 15 17 21 22
4 3 17 24 5 3 4 13 6 15 17 6 4 6 4 5 2 2 5 6 13 10 5 6 3 15 18 6 15 15 11 9 5 12 8 13 11 3 17 14 10 11 13 18 22
3 3 9 7 4 6 10 10 12 14 8 7 4 5 4 2 2 2 5 6 17 12 6 8 4 1 7 3 4 10 11 17 15 2 19 10 6 7 9 7 10 11 12 12 16
3 4 4 4 3 3 6 4 10 10 13 7 3 6 5 4 1 4 6 3 12 10 10 3 3 3 7 5 2 7 9 17 17 11 18 19 5 3 6 11 11 9 10 12 14
0 3 1 4 4 5 5 4 10 7 9 7 4 7 3 1 2 0 5 9 7 7 5 4 2 4 7 14 16 15 13 25 21 22 16 15 13 13 9 10 10 10 7 6 8
1 1 1 3 6 4 5 1 3 5 4 6 7 11 4 4 3 5 4 3 5 5 6 3 3 5 6 11 13 16 18 24 30 23 13 11 7 9 15 8 7 11 10 10 11
4 4 2 2 5 3 3 2 12 12 5 6 10 14 4 4 4 9 9 7 8 5 2 2 2 5 4 10 12 11 28 21 17 17 19 19 9 9 8 9 13 13 10 11 13
Wind_Direction
352 350 348 347 346 344 342 340 339 338 334 334 332 325 321 317 311 299 243 246 218 181 158 149 156 156 170 213 98 124 115 219 206 183 174 155 155 165 124 139 172 176 144 156 159
349 347 346 345 342 340 339 337 336 335 334 332 331 325 323 323 317 256 276 265 220 179 156 158 175 162 206 180 188 161 195 237 191 151 166 178 170 168 132 158 152 103 122 150 154
349 347 346 344 339 335 333 333 332 330 329 331 331 325 326 334 309 250 339 267 200 186 179 173 172 174 210 146 192 199 226 261 201 183 164 174 189 177 144 186 188 151 147 159 163
350 347 345 342 338 334 331 329 329 328 327 326 328 325 324 354 282 235 7 344 180 179 172 177 155 192 183 212 189 249 245 244 342 156 166 173 163 170 174 190 168 158 160 162 170
351 350 347 345 343 337 334 331 329 326 322 321 317 324 327 221 242 245 290 8 155 172 171 164 164 182 202 203 195 237 257 275 190 145 178 158 180 183 199 151 152 152 162 169 172
353 349 347 345 343 339 335 331 327 323 317 309 297 283 189 248 263 276 247 181 166 169 183 163 181 203 224 239 183 229 244 258 274 168 173 171 193 160 209 154 158 162 170 177 178
351 349 347 345 343 339 334 329 322 317 311 289 250 185 221 238 236 145 242 205 184 183 151 196 196 180 186 277 249 247 265 297 264 247 169 194 213 199 178 163 167 171 173 179 189
349 349 346 344 343 340 333 322 319 314 305 269 175 164 242 257 274 248 234 208 203 208 213 201 206 201 182 297 354 260 84 281 277 180 228 179 212 200 166 166 176 177 174 183 193
348 348 345 344 341 340 328 322 323 33 39 131 132 177 264 296 238 249 233 205 218 219 229 220 137 191 138 164 359 343 221 222 300 179 171 181 197 167 169 174 177 181 182 188 191
347 346 345 343 341 339 331 339 105 92 92 123 98 328 254 244 213 219 210 200 153 145 120 183 185 167 114 140 209 197 202 244 234 277 183 195 184 162 172 180 182 182 186 189 196
347 345 345 342 341 342 355 14 13 347 304 229 206 261 286 286 292 216 168 146 121 116 168 187 174 205 204 178 198 191 231 248 133 202 74 263 177 176 177 185 187 189 185 193 204
346 344 344 340 342 345 356 45 70 324 294 248 249 249 247 28 314 263 167 142 149 185 164 188 220 194 193 187 208 192 227 259 300 213 194 222 204 187 179 195 192 188 190 194 197
343 342 343 338 340 336 347 98 335 345 247 272 217 238 216 185 210 252 169 155 140 164 195 208 223 170 179 185 192 199 203 242 241 15 220 119 2 179 204 219 199 204 200 200 196
340 340 340 338 345 334 313 332 331 337 298 275 239 254 156 128 232 212 185 163 162 196 157 223 230 200 193 212 182 238 195 247 256 56 239 126 240 194 200 212 210 204 206 207 206
342 340 337 335 304 316 307 330 332 144 314 220 181 144 151 173 165 204 182 153 182 168 160 215 186 203 214 219 174 242 185 197 201 205 167 223 152 247 176 209 216 207 208 210 209
339 336 333 330 308 298 324 327 325 42 246 300 75 52 123 266 292 90 173 118 136 164 227 214 199 199 206 198 204 179 305 28 36 144 239 247 172 245 194 203 211 212 210 209 206
338 333 321 310 264 297 314 335 72 207 330 7 350 341 260 250 229 190 179 187 169 168 207 187 225 228 154 197 187 135 110 265 276 199 233 221 194 230 204 208 210 205 211 210 205
337 331 323 315 320 289 313 64 211 240 307 18 330 295 61 11 8 331 176 195 210 112 176 178 216 210 197 187 199 194 188 161 199 208 234 156 231 233 216 226 215 217 212 209 204
335 326 333 2 358 199 95 193 211 203 19 345 327 23 358 12 6 7 4 215 209 180 172 188 231 229 199 190 176 193 198 194 141 183 10 226 275 303 211 234 237 214 203 208 206
330 312 310 6 348 146 59 259 275 331 1 342 21 14 357 348 11 24 337 13 345 254 240 213 235 216 201 172 214 190 171 162 358 222 239 252 248 218 193 216 225 231 202 212 209
326 347 297 333 332 73 204 248 298 300 20 357 334 312 289 347 2 24 278 29 6 347 351 360 180 236 131 187 199 181 202 201 164 162 216 215 252 183 205 211 212 218 210 210 205
7 339 319 335 44 1 5 317 277 289 307 280 272 267 273 44 343 280 257 34 19 351 21 332 283 241 225 224 201 206 199 162 163 221 244 234 233 333 192 203 206 218 211 219 215
329 259 326 49 55 2 336 331 344 3 350 337 330 49 3 84 347 68 316 40 13 15 10 343 304 290 335 307 288 210 205 205 220 128 225 218 253 213 174 207 204 212 233 234 224
4 330 325 27 142 23 334 331 345 330 300 348 327 63 46 12 14 312 301 2 340 336 4 58 301 244 256 276 306 211 225 208 204 225 229 229 226 228 204 209 233 216 227 211 195
160 269 239 310 343 322 321 286 341 349 338 317 46 59 54 322 307 206 12 329 341 352 19 85 251 283 299 300 286 263 245 222 216 219 216 228 205 231 208 201 212 226 229 222 209
258 290 319 262 278 295 304 319 347 331 329 310 351 340 324 218 192 285 291 228 264 322 350 6 281 340 291 266 261 261 252 245 222 220 228 225 216 213 223 225 228 223 226 205 212
243 254 259 336 300 277 239 359 319 318 272 270 298 316 280 243 280 256 229 223 234 277 296 302 203 2 275 315 324 271 237 246 248 216 206 223 198 190 240 205 225 232 224 211 215